FW8825 Weather Reports


time (UTC)temp
F
wind
direction
speed
knots
gust
knots
rain 1hr
in
rain 24hr
in
rain mn
in
humidity
%
barometer
mb
20260508040005 47 159 0.9 3.5 0.00 0.00 0.00 86 1017.0
20260508035504 47 159 0.9 1.7 0.00 0.00 0.00 86 1017.0
20260508035005 47 159 0.9 3.5 0.00 0.00 0.00 86 1017.0
20260508034505 47 159 0.9 3.5 0.00 0.00 0.00 86 1016.9
20260508033505 47 159 0.9 3.5 0.00 0.00 0.00 86 1017.0
20260508032504 47 154 0.9 3.5 0.00 0.00 0.00 86 1017.1
20260508032004 47 150 0.9 3.5 0.00 0.00 0.00 86 1017.1
20260508031504 47 150 0.9 2.6 0.00 0.00 0.00 86 1017.1
20260508031005 47 146 0.9 3.5 0.00 0.00 0.00 86 1017.1
20260508030505 47 146 0.9 3.5 0.00 0.00 0.00 85 1017.1
20260508030005 47 150 0.9 2.6 0.00 0.00 0.00 85 1017.1
20260508025505 48 153 0.9 3.5 0.00 0.00 0.00 85 1017.1
20260508025005 48 153 1.7 3.5 0.00 0.00 0.00 85 1017.2
20260508024504 48 151 1.7 3.5 0.00 0.00 0.00 85 1017.0
20260508024005 48 147 0.9 2.6 0.00 0.00 0.00 85 1017.2
20260508023505 48 143 0.9 2.6 0.00 0.00 0.00 85 1017.2
20260508023005 48 139 0.9 1.7 0.00 0.00 0.00 85 1017.1
20260508022505 48 139 0.9 2.6 0.00 0.00 0.00 85 1017.0
20260508022005 48 139 0.9 2.6 0.00 0.00 0.00 85 1017.2
20260508021504 48 139 0.9 2.6 0.00 0.00 0.00 84 1017.2
20260508021004 48 139 0.9 2.6 0.00 0.00 0.00 84 1017.1
20260508020005 48 139 0.9 2.6 0.00 0.00 0.00 84 1017.1
20260508015005 48 139 0.0 1.7 0.00 0.00 0.00 84 1017.0
20260508014004 48 139 0.9 1.7 0.00 0.00 0.00 84 1017.0
20260508013506 48 139 0.9 1.7 0.00 0.00 0.00 83 1017.0
20260508013005 48 139 0.9 1.7 0.00 0.00 0.00 83 1016.9
20260508012504 48 139 0.9 2.6 0.00 0.00 0.00 83 1017.0
20260508012004 48 139 0.9 2.6 0.00 0.00 0.00 83 1017.0
20260508011504 48 139 0.9 2.6 0.00 0.00 0.00 83 1016.9
20260508011005 48 139 0.9 2.6 0.00 0.00 0.00 83 1016.8
20260508010504 48 139 0.9 2.6 0.00 0.00 0.00 83 1016.8
20260508010004 48 139 0.0 1.7 0.00 0.00 0.00 82 1016.8
20260508005504 49 140 0.0 1.7 0.00 0.00 0.00 82 1016.9
20260508005005 49 139 0.0 1.7 0.00 0.00 0.00 82 1016.8
20260508004504 49 0 0.0 0.0 0.00 0.00 0.00 82 1017.0
20260508004004 49 0 0.0 0.0 0.00 0.00 0.00 82 1017.0
20260508003505 49 139 0.0 2.6 0.00 0.00 0.00 82 1017.1
20260508003005 49 139 0.0 2.6 0.00 0.00 0.00 81 1017.1
20260508002504 49 140 0.0 1.7 0.00 0.00 0.00 81 1017.0
20260508002004 49 140 0.0 1.7 0.00 0.00 0.00 81 1017.1
20260508001504 49 140 0.0 1.7 0.00 0.00 0.00 81 1017.0
20260508000505 49 138 0.9 3.5 0.00 0.00 0.00 81 1017.1
20260508000005 49 130 0.9 3.5 0.00 0.00 0.00 81 1017.1
20260507235504 49 120 0.9 3.5 0.00 0.00 0.00 80 1017.2
20260507235004 49 126 0.9 3.5 0.00 0.00 0.00 80 1017.1
20260507234504 49 142 0.9 3.5 0.00 0.00 0.00 80 1017.3
20260507232507 49 151 0.9 4.3 0.00 0.00 0.00 79 1017.3
20260507232008 49 151 1.7 4.3 0.00 0.00 0.00 79 1017.3
20260507231507 49 149 1.7 4.3 0.00 0.00 0.00 79 1017.3
20260507231007 49 147 1.7 5.2 0.00 0.00 0.00 79 1017.2
20260507230508 49 147 1.7 5.2 0.00 0.00 0.00 78 1017.1
20260507225507 50 140 1.7 5.2 0.00 0.00 0.00 78 1017.3
20260507225007 50 138 2.6 7.0 0.00 0.00 0.00 78 1017.4
20260507224507 50 129 1.7 7.0 0.00 0.00 0.00 77 1017.4
20260507224007 50 119 0.9 6.1 0.00 0.00 0.00 77 1017.4
20260507223507 50 116 1.7 3.5 0.00 0.00 0.00 77 1017.4
20260507223008 50 130 1.7 4.3 0.00 0.00 0.00 77 1017.4
20260507222507 50 134 1.7 5.2 0.00 0.00 0.00 77 1017.4
20260507222007 50 128 1.7 6.1 0.00 0.00 0.00 77 1017.3
20260507221507 50 124 1.7 6.1 0.00 0.00 0.00 76 1017.4
20260507221007 50 121 1.7 7.0 0.00 0.00 0.00 77 1017.3
20260507220507 51 122 1.7 7.0 0.00 0.00 0.00 76 1017.3
20260507220007 51 114 1.7 5.2 0.00 0.00 0.00 76 1017.3
20260507215508 51 118 1.7 5.2 0.00 0.00 0.00 76 1017.3
20260507215007 51 131 1.7 7.8 0.00 0.00 0.00 76 1017.3
20260507214007 51 141 1.7 7.0 0.00 0.00 0.00 76 1017.3
20260507213507 51 142 1.7 7.0 0.00 0.00 0.00 75 1017.2
20260507213007 51 138 1.7 7.0 0.00 0.00 0.00 75 1017.3
20260507212507 51 124 1.7 4.3 0.00 0.00 0.00 75 1017.4
20260507212008 51 125 1.7 6.1 0.00 0.00 0.00 75 1017.2
20260507211507 51 128 1.7 7.0 0.00 0.00 0.00 75 1017.2
20260507211007 51 126 1.7 7.0 0.00 0.00 0.00 75 1017.0
20260507210507 52 130 1.7 6.1 0.00 0.00 0.00 74 1017.1
20260507210007 52 136 1.7 6.1 0.00 0.00 0.00 74 1017.1
20260507205507 52 140 1.7 6.1 0.00 0.00 0.00 74 1017.1
20260507205007 52 136 2.6 6.1 0.00 0.00 0.00 74 1017.0
20260507204507 52 135 2.6 6.1 0.00 0.00 0.00 73 1017.0
20260507204007 52 133 2.6 6.1 0.00 0.00 0.00 73 1016.9
20260507203507 52 126 1.7 8.7 0.00 0.00 0.00 73 1016.8
20260507203007 52 131 1.7 8.7 0.00 0.00 0.00 73 1016.6
20260507202507 53 133 1.7 7.0 0.00 0.00 0.00 72 1016.8
20260507202007 53 123 2.6 7.8 0.00 0.00 0.00 72 1016.7
20260507201507 53 126 2.6 7.8 0.00 0.00 0.00 71 1016.6
20260507201007 53 129 2.6 7.0 0.00 0.00 0.00 71 1016.6
20260507200507 53 133 2.6 8.7 0.00 0.00 0.00 71 1016.5
20260507200007 53 134 2.6 8.7 0.00 0.00 0.00 70 1016.4
20260507195506 53 134 2.6 7.8 0.00 0.00 0.00 70 1016.3
20260507195007 53 130 2.6 7.0 0.00 0.00 0.00 69 1016.3
20260507194507 54 126 2.6 7.0 0.00 0.00 0.00 69 1016.2
20260507194007 54 119 1.7 7.0 0.00 0.00 0.00 68 1016.3
20260507193507 54 115 1.7 7.0 0.00 0.00 0.00 68 1016.2
20260507193007 54 124 1.7 6.1 0.00 0.00 0.00 68 1016.2
20260507192506 54 118 2.6 7.0 0.00 0.00 0.00 68 1016.1
20260507192006 54 119 1.7 7.0 0.00 0.00 0.00 67 1016.1
20260507191506 54 121 1.7 7.0 0.00 0.00 0.00 67 1016.1
20260507190506 54 115 1.7 6.1 0.00 0.00 0.00 67 1016.1
20260507190007 55 115 1.7 6.1 0.00 0.00 0.00 67 1016.1
20260507185507 55 123 2.6 7.8 0.00 0.00 0.00 67 1016.0
20260507185007 55 116 2.6 7.8 0.00 0.00 0.00 67 1016.1
20260507184507 55 109 2.6 7.8 0.00 0.00 0.00 66 1016.1
20260507184007 55 116 1.7 7.8 0.00 0.00 0.00 66 1016.0
20260507183007 55 112 2.6 7.8 0.00 0.00 0.00 65 1016.0
20260507182507 55 112 1.7 7.8 0.00 0.00 0.00 65 1016.0
20260507182007 56 119 1.7 7.0 0.00 0.00 0.00 64 1015.9
20260507181506 56 123 1.7 7.0 0.00 0.00 0.00 64 1016.0
20260507180006 56 133 1.7 5.2 0.00 0.00 0.00 63 1015.8
20260507175506 56 127 1.7 5.2 0.00 0.00 0.00 62 1015.6
20260507175006 56 133 1.7 5.2 0.00 0.00 0.00 63 1015.5
20260507174507 56 129 2.6 7.0 0.00 0.00 0.00 62 1015.6
20260507174007 56 126 2.6 7.0 0.00 0.00 0.00 62 1015.7
20260507173507 57 119 3.5 7.0 0.00 0.00 0.00 61 1015.8
20260507172507 57 96 4.3 9.6 0.00 0.00 0.00 61 1015.7
20260507172007 57 109 3.5 9.6 0.00 0.00 0.00 60 1015.8
20260507171507 58 136 2.6 9.6 0.00 0.00 0.00 60 1015.8
20260507170506 58 115 2.6 7.8 0.00 0.00 0.00 60 1015.6
20260507165506 58 134 3.5 9.6 0.00 0.00 0.00 59 1015.8
20260507165006 58 138 3.5 9.6 0.00 0.00 0.00 59 1015.9
20260507164507 58 111 3.5 7.0 0.00 0.00 0.00 60 1015.9
20260507164007 58 115 2.6 7.8 0.00 0.00 0.00 60 1015.8
20260507163507 58 113 2.6 7.8 0.00 0.00 0.00 61 1015.9
20260507162507 59 138 4.3 8.7 0.00 0.00 0.00 59 1016.0
20260507162006 59 151 4.3 10.4 0.00 0.00 0.00 58 1015.9
20260507161507 58 136 3.5 10.4 0.00 0.00 0.00 58 1015.9
20260507161006 59 112 3.5 8.7 0.00 0.00 0.00 57 1015.8
20260507160506 59 129 3.5 8.7 0.00 0.00 0.00 58 1015.8
20260507160006 59 149 3.5 9.6 0.00 0.00 0.00 57 1015.8
20260507155507 58 141 3.5 10.4 0.00 0.00 0.00 56 1015.8
20260507155007 58 120 2.6 10.4 0.00 0.00 0.00 55 1015.8
20260507154506 58 118 2.6 7.8 0.00 0.00 0.00 56 1015.9
20260507154008 58 132 3.5 7.0 0.00 0.00 0.00 55 1016.1
20260507153506 58 141 4.3 8.7 0.00 0.00 0.00 55 1016.0
20260507153006 58 159 5.2 10.4 0.00 0.00 0.00 56 1016.1
20260507152007 58 159 4.3 13.9 0.00 0.00 0.00 57 1016.2
20260507151506 58 149 3.5 11.3 0.00 0.00 0.00 56 1016.3
20260507151006 59 118 2.6 10.4 0.00 0.00 0.00 55 1016.3
20260507150506 59 122 2.6 10.4 0.00 0.00 0.00 54 1016.1
20260507150006 59 118 3.5 6.1 0.00 0.00 0.00 54 1016.4
20260507145006 58 168 5.2 11.3 0.00 0.00 0.00 55 1016.3
20260507144506 58 165 5.2 14.8 0.00 0.00 0.00 54 1016.4
20260507144006 59 163 4.3 14.8 0.00 0.00 0.00 55 1016.4
20260507143506 58 172 4.3 11.3 0.00 0.00 0.00 56 1016.3
20260507143006 58 182 4.3 11.3 0.00 0.00 0.00 55 1016.4
20260507142506 58 175 3.5 11.3 0.00 0.00 0.00 53 1016.4
20260507142006 58 168 3.5 11.3 0.00 0.00 0.00 54 1016.4
20260507141007 57 169 3.5 7.0 0.00 0.00 0.00 55 1016.6
20260507140006 56 154 1.7 7.8 0.00 0.00 0.00 58 1016.7
20260507135506 56 150 2.6 5.2 0.00 0.00 0.00 60 1016.7
20260507135006 56 147 1.7 7.0 0.00 0.00 0.00 58 1016.7
20260507134506 56 160 1.7 7.0 0.00 0.00 0.00 60 1016.7
20260507133506 56 156 3.5 6.1 0.00 0.00 0.00 59 1016.8
20260507133008 56 151 4.3 7.0 0.00 0.00 0.00 58 1016.8
20260507132506 57 161 4.3 10.4 0.00 0.00 0.00 58 1016.8
20260507132006 58 174 3.5 10.4 0.00 0.00 0.00 57 1016.8
20260507131506 58 172 2.6 9.6 0.00 0.00 0.00 59 1016.7
20260507131006 57 152 2.6 7.0 0.00 0.00 0.00 59 1016.8
20260507130507 56 138 2.6 7.0 0.00 0.00 0.00 60 1016.8
20260507125506 55 162 2.6 7.0 0.00 0.00 0.00 62 1016.8
20260507125006 55 164 2.6 7.0 0.00 0.00 0.00 62 1016.8
20260507124506 55 157 2.6 7.0 0.00 0.00 0.00 63 1016.8
20260507122506 54 158 2.6 8.7 0.00 0.00 0.00 62 1016.9
20260507122006 55 147 3.5 8.7 0.00 0.00 0.00 63 1017.0
20260507121506 55 148 4.3 9.6 0.00 0.00 0.00 62 1016.9
20260507121005 55 138 4.3 9.6 0.00 0.00 0.00 62 1017.0
20260507120506 56 136 5.2 10.4 0.00 0.00 0.00 62 1016.9
20260507120006 57 147 5.2 10.4 0.00 0.00 0.00 61 1016.9
20260507115506 58 153 4.3 10.4 0.00 0.00 0.00 60 1016.9
20260507115006 58 153 4.3 11.3 0.00 0.00 0.00 58 1016.9
20260507114506 58 134 4.3 11.3 0.00 0.00 0.00 61 1016.9
20260507114006 57 124 4.3 11.3 0.00 0.00 0.00 60 1016.8
20260507113506 56 111 3.5 8.7 0.00 0.00 0.00 60 1016.9
20260507113006 56 129 2.6 9.6 0.00 0.00 0.00 60 1016.9
20260507112506 56 135 3.5 9.6 0.00 0.00 0.00 59 1016.9
20260507112006 56 141 3.5 8.7 0.00 0.00 0.00 61 1017.0
20260507111506 56 166 2.6 7.8 0.00 0.00 0.00 61 1016.9
20260507110505 56 124 3.5 7.0 0.00 0.00 0.00 57 1017.0
20260507110005 57 148 3.5 8.7 0.00 0.00 0.00 60 1017.0
20260507105006 56 177 3.5 7.8 0.00 0.00 0.00 62 1017.0
20260507104506 56 179 3.5 8.7 0.00 0.00 0.00 61 1016.9
20260507104006 55 166 3.5 8.7 0.00 0.00 0.00 61 1017.1
20260507103505 56 151 2.6 7.8 0.00 0.00 0.00 64 1017.0
20260507103005 55 120 3.5 7.0 0.00 0.00 0.00 63 1017.2
20260507102505 55 91 4.3 7.0 0.00 0.00 0.00 66 1017.1
20260507101507 55 136 4.3 11.3 0.00 0.00 0.00 65 1017.1
20260507101005 54 144 3.5 8.7 0.00 0.00 0.00 66 1017.2
20260507100506 54 139 3.5 8.7 0.00 0.00 0.00 66 1017.1
20260507100006 54 111 3.5 9.6 0.00 0.00 0.00 67 1017.2
20260507095506 54 108 4.3 9.6 0.00 0.00 0.00 67 1017.2
20260507095006 54 148 3.5 9.6 0.00 0.00 0.00 69 1017.2
20260507094505 54 156 3.5 9.6 0.00 0.00 0.00 67 1017.2
20260507093506 54 129 2.6 8.7 0.00 0.00 0.00 68 1017.1
20260507093006 54 110 2.6 7.0 0.00 0.00 0.00 69 1017.1
20260507092505 53 120 2.6 7.0 0.00 0.00 0.00 71 1017.1
20260507092006 53 122 2.6 7.0 0.00 0.00 0.00 71 1017.2
20260507091006 53 131 3.5 7.0 0.00 0.00 0.00 72 1017.2
20260507090505 53 138 2.6 7.0 0.00 0.00 0.00 71 1017.1
20260507090006 53 121 2.6 6.1 0.00 0.00 0.00 74 1017.2
20260507085506 52 117 2.6 7.0 0.00 0.00 0.00 74 1017.2
20260507085005 52 117 2.6 7.0 0.00 0.00 0.00 75 1017.1
20260507084505 51 125 2.6 7.0 0.00 0.00 0.00 75 1017.1
20260507083505 51 156 1.7 5.2 0.00 0.00 0.00 76 1017.2
20260507083006 51 120 1.7 6.1 0.00 0.00 0.00 78 1017.3
20260507082506 51 101 1.7 6.1 0.00 0.00 0.00 80 1017.4
20260507082005 50 112 1.7 4.3 0.00 0.00 0.00 79 1017.4
20260507081505 49 106 2.6 5.2 0.00 0.00 0.00 79 1017.3
20260507081005 49 101 2.6 5.2 0.00 0.00 0.00 80 1017.4
20260507080505 49 126 3.5 7.0 0.00 0.00 0.00 82 1017.3
20260507080006 48 165 3.5 7.0 0.00 0.00 0.00 83 1017.2
20260507075505 47 168 2.6 7.0 0.00 0.00 0.00 82 1017.2
20260507075005 47 152 3.5 7.0 0.00 0.00 0.00 82 1017.2
20260507074505 48 151 3.5 8.7 0.00 0.00 0.00 82 1017.1
20260507073505 48 161 2.6 7.0 0.00 0.00 0.00 82 1017.1
20260507073005 48 148 1.7 6.1 0.00 0.00 0.00 82 1017.0
20260507072505 48 132 1.7 6.1 0.00 0.00 0.00 82 1017.2
20260507071505 48 93 1.7 6.1 0.00 0.00 0.00 83 1017.0
20260507071005 48 93 1.7 3.5 0.00 0.00 0.00 82 1017.1
20260507070505 48 90 1.7 5.2 0.00 0.00 0.00 82 1017.1
20260507070009 48 87 1.7 5.2 0.00 0.00 0.00 83 1017.0
20260507065505 47 86 1.7 3.5 0.00 0.00 0.00 83 1017.0
20260507064505 47 86 1.7 4.3 0.00 0.00 0.00 83 1016.9
20260507063505 47 78 2.6 4.3 0.00 0.00 0.00 85 1016.9
20260507062505 46 83 2.6 6.1 0.00 0.00 0.00 85 1016.8
20260507062005 46 84 2.6 7.0 0.00 0.00 0.00 85 1016.8
20260507061505 46 82 2.6 7.0 0.00 0.00 0.00 85 1016.9
20260507061005 46 83 2.6 4.3 0.00 0.00 0.00 86 1016.6
20260507060505 45 79 1.7 6.1 0.00 0.00 0.00 86 1016.8
20260507055505 46 82 1.7 3.5 0.00 0.00 0.00 87 1016.7
20260507055005 45 82 0.9 3.5 0.00 0.00 0.00 87 1016.7
20260507054505 45 83 1.7 3.5 0.00 0.00 0.00 88 1016.7
20260507054005 45 83 1.7 2.6 0.00 0.00 0.00 88 1016.8
20260507053505 44 83 1.7 3.5 0.00 0.00 0.00 88 1016.7
20260507052505 44 83 1.7 3.5 0.00 0.00 0.00 89 1016.6
20260507051505 43 84 1.7 3.5 0.00 0.00 0.00 89 1016.5
20260507051005 43 77 1.7 3.5 0.00 0.00 0.00 89 1016.5
20260507050505 43 51 1.7 3.5 0.00 0.00 0.00 89 1016.6
20260507050006 43 27 1.7 3.5 0.00 0.00 0.00 89 1016.6
20260507045505 43 27 0.9 3.5 0.00 0.00 0.00 89 1016.5
20260507045005 43 27 0.9 2.6 0.00 0.00 0.00 89 1016.5
20260507044505 43 23 0.9 2.6 0.00 0.00 0.00 89 1016.4
20260507044005 43 22 0.9 2.6 0.00 0.00 0.00 89 1016.6
20260507043505 43 22 0.9 2.6 0.00 0.00 0.00 89 1016.5
20260507043005 43 22 0.9 1.7 0.00 0.00 0.00 89 1016.5
20260507042505 43 22 0.9 2.6 0.00 0.00 0.00 89 1016.5
20260507042005 43 22 1.7 2.6 0.00 0.00 0.00 89 1016.4
20260507041505 43 22 1.7 2.6 0.00 0.00 0.00 89 1016.5
20260507041005 43 22 1.7 2.6 0.00 0.00 0.00 89 1016.6